Date String (YYYY-MM-DD hh:mm:ss) UTC,Instrument flags,absolute air pressure of the measurement (hPa),sample flow rate (lpm),inlet stack bypass flow (lpm),air temperature of the measurement (°C),ambient temperature measured by the external sensor (°C),aerosol sample conditioner tube jacket temperature (°C),OPC LED temperature (°C),internal box temperature (°C),relative humidity of the measurement (%),span deviation,mass concentration of particles derived from Lorenz-Mie calculation of OPC scattering (μg/m³),mass concentration of particles derived from Lorenz-Mie calculation of OPC scattering (μg/m³),mass concentration of particles derived from Lorenz-Mie calculation of OPC scattering (μg/m³)
DateTimeUTC,F1_M11,P_M11,Q1_M11,Q2_M11,T1_M11,T2_M11,T3_M11,T4_M11,T5_M11,U1_M11,ZSPAN_M11,X2_M11,X0_M11,X1_M11
2023-07-26 23:00:00,SystemResetWarning,0835.1,5.00,000.00,029.0,026.8,000.0,037.3,030.4,32.3,0000.0,0004.05,0011.10,0003.07
2023-07-26 23:01:00,SystemResetWarning,0835.2,5.00,000.00,029.0,027.1,000.0,037.3,030.5,33.6,0000.0,0004.04,0010.34,0003.07
2023-07-26 23:02:00,SystemResetWarning,0835.1,5.00,000.00,029.0,027.4,000.0,037.3,030.6,34.3,0000.0,0004.06,0010.13,0003.08
2023-07-26 23:03:00,SystemResetWarning,0835.2,4.99,000.00,029.1,026.8,000.0,037.3,030.6,35.5,0000.0,0004.04,0009.43,0003.07
2023-07-26 23:04:00,SystemResetWarning,0835.2,5.03,000.00,029.2,025.3,000.0,037.2,030.4,35.4,0000.0,0004.00,0008.90,0003.06
2023-07-26 23:05:00,SystemResetWarning,0835.3,4.98,000.00,029.4,024.7,000.0,037.1,030.4,34.6,0000.0,0004.02,0008.91,0003.09
2023-07-26 23:06:00,SystemResetWarning,0835.3,5.02,000.00,029.5,024.9,000.0,037.1,030.2,34.9,0000.0,0004.03,0008.75,0003.10
2023-07-26 23:07:00,SystemResetWarning,0835.2,4.97,000.00,029.6,025.3,000.0,037.2,030.3,33.8,0000.0,0004.05,0008.66,0003.13
2023-07-26 23:08:00,SystemResetWarning,0835.2,5.00,000.00,029.7,025.8,000.0,037.3,030.3,33.5,0000.0,0004.03,0008.30,0003.14
2023-07-26 23:09:00,SystemResetWarning,0835.2,5.01,000.00,029.8,026.3,000.0,037.4,030.4,33.6,0000.0,0004.04,0007.94,0003.16
2023-07-26 23:10:00,SystemResetWarning,0835.2,5.00,000.00,029.9,026.7,000.0,037.5,030.6,33.0,0000.0,0004.07,0007.97,0003.18
2023-07-26 23:11:00,SystemResetWarning,0835.3,5.00,000.00,029.9,027.1,000.0,037.6,030.7,32.4,0000.0,0004.09,0007.96,0003.20
2023-07-26 23:12:00,SystemResetWarning,0835.3,5.00,000.00,030.0,027.4,000.0,037.7,030.8,29.2,0000.0,0004.10,0007.93,0003.23
2023-07-26 23:13:00,SystemResetWarning,0835.3,4.99,000.00,030.0,027.0,000.0,037.7,030.8,29.2,0000.0,0004.10,0007.79,0003.24
2023-07-26 23:14:00,SystemResetWarning,0835.2,5.00,000.00,030.0,025.5,000.0,037.6,030.4,30.1,0000.0,0004.10,0007.65,0003.27
2023-07-26 23:15:00,SystemResetWarning,0835.3,5.01,000.00,029.9,024.8,000.0,037.5,030.3,29.9,0000.0,0004.14,0007.69,0003.30
2023-07-26 23:16:00,SystemResetWarning,0835.3,5.01,000.00,029.8,024.9,000.0,037.6,030.1,29.2,0000.0,0004.18,0008.04,0003.30
2023-07-26 23:17:00,SystemResetWarning,0835.3,5.01,000.00,029.7,025.3,000.0,037.6,030.1,30.4,0000.0,0004.26,0008.56,0003.33
2023-07-26 23:18:00,SystemResetWarning,0835.3,5.00,000.00,029.7,025.8,000.0,037.7,030.2,29.5,0000.0,0004.29,0008.99,0003.34
2023-07-26 23:19:00,SystemResetWarning,0835.2,5.00,000.00,029.7,026.2,000.0,037.7,030.4,30.6,0000.0,0004.33,0009.11,0003.35
2023-07-26 23:20:00,SystemResetWarning,0835.2,5.00,000.00,029.7,026.7,000.0,037.7,030.5,29.7,0000.0,0004.33,0009.57,0003.34
2023-07-26 23:21:00,SystemResetWarning,0835.2,5.00,000.00,029.7,027.0,000.0,037.8,030.6,32.6,0000.0,0004.30,0009.79,0003.33
2023-07-26 23:22:00,SystemResetWarning,0835.2,5.00,000.00,029.7,027.4,000.0,037.8,030.7,33.3,0000.0,0004.27,0010.63,0003.31
2023-07-26 23:23:00,SystemResetWarning,0835.2,4.99,000.00,029.8,027.2,000.0,037.8,030.7,32.6,0000.0,0004.26,0011.20,0003.30
2023-07-26 23:24:00,SystemResetWarning,0835.3,4.99,000.00,029.7,025.7,000.0,037.7,030.5,33.8,0000.0,0004.28,0011.57,0003.28
2023-07-26 23:25:00,SystemResetWarning,0835.2,5.01,000.00,029.7,024.9,000.0,037.6,030.3,33.8,0000.0,0004.25,0012.62,0003.26
2023-07-26 23:26:00,SystemResetWarning,0835.1,5.02,000.00,029.5,024.9,000.0,037.5,030.2,33.5,0000.0,0004.28,0014.86,0003.24
2023-07-26 23:27:00,SystemResetWarning,0835.0,5.00,000.00,029.4,025.3,000.0,037.6,030.1,33.9,0000.0,0004.31,0015.70,0003.23
2023-07-26 23:28:00,SystemResetWarning,0834.9,5.00,000.00,029.4,025.8,000.0,037.6,030.2,34.3,0000.0,0004.25,0015.28,0003.21
2023-07-26 23:29:00,SystemResetWarning,0834.9,5.00,000.00,029.4,026.2,000.0,037.6,030.4,33.8,0000.0,0004.19,0014.72,0003.19
2023-07-26 23:30:00,SystemResetWarning,0834.9,4.98,000.00,029.5,026.7,000.0,037.7,030.5,35.0,0000.0,0004.11,0014.50,0003.17
2023-07-26 23:31:00,SystemResetWarning,0834.8,5.02,000.00,029.6,027.0,000.0,037.7,030.6,33.5,0000.0,0004.14,0014.34,0003.16
2023-07-26 23:32:00,SystemResetWarning,0834.7,4.98,000.00,029.7,027.3,000.0,037.7,030.7,33.3,0000.0,0004.17,0014.10,0003.17
2023-07-26 23:33:00,SystemResetWarning,0834.9,5.00,000.00,029.8,027.6,000.0,037.7,030.8,33.2,0000.0,0004.17,0013.28,0003.17
2023-07-26 23:34:00,SystemResetWarning,0835.0,5.00,000.00,029.8,026.9,000.0,037.7,030.8,33.7,0000.0,0004.12,0012.61,0003.16
2023-07-26 23:35:00,SystemResetWarning,0834.6,5.00,000.00,029.8,025.4,000.0,037.6,030.6,34.3,0000.0,0004.07,0012.64,0003.15
2023-07-26 23:36:00,SystemResetWarning,0834.9,5.02,000.00,029.7,024.9,000.0,037.5,030.4,33.1,0000.0,0004.07,0011.92,0003.14
2023-07-26 23:37:00,SystemResetWarning,0835.1,5.01,000.00,029.6,025.0,000.0,037.6,030.2,33.0,0000.0,0004.05,0009.84,0003.14
2023-07-26 23:38:00,SystemResetWarning,0835.0,4.99,000.00,029.6,025.4,000.0,037.6,030.2,33.1,0000.0,0004.02,0008.51,0003.15
2023-07-26 23:39:00,SystemResetWarning,0834.8,5.00,000.00,029.5,025.9,000.0,037.7,030.4,34.0,0000.0,0004.02,0009.24,0003.14
2023-07-26 23:40:00,SystemResetWarning,0834.9,4.99,000.00,029.5,026.4,000.0,037.7,030.5,34.7,0000.0,0004.02,0009.71,0003.15
2023-07-26 23:41:00,SystemResetWarning,0835.0,4.99,000.00,029.6,026.8,000.0,037.7,030.6,35.1,0000.0,0004.08,0010.73,0003.16
2023-07-26 23:42:00,SystemResetWarning,0834.8,5.03,000.00,029.7,027.1,000.0,037.7,030.8,35.2,0000.0,0004.07,0010.71,0003.18
2023-07-26 23:43:00,SystemResetWarning,0834.9,4.99,000.00,030.0,027.4,000.0,037.8,031.0,35.2,0000.0,0004.08,0010.80,0003.19
2023-07-26 23:44:00,SystemResetWarning,0834.9,5.00,000.00,030.4,027.0,000.0,037.7,031.1,34.5,0000.0,0004.11,0011.42,0003.21
2023-07-26 23:45:00,SystemResetWarning,0834.8,4.99,000.00,030.6,025.4,000.0,037.7,030.9,34.2,0000.0,0004.22,0011.77,0003.24
2023-07-26 23:46:00,SystemResetWarning,0834.5,5.02,000.00,030.7,024.8,000.0,037.6,030.7,34.0,0000.0,0004.30,0011.54,0003.27
2023-07-26 23:47:00,SystemResetWarning,0834.4,5.01,000.00,030.6,024.9,000.0,037.7,030.5,33.3,0000.0,0004.35,0011.74,0003.29
2023-07-26 23:48:00,SystemResetWarning,0834.4,4.99,000.00,030.6,025.3,000.0,037.9,030.5,33.6,0000.0,0004.39,0011.94,0003.32
2023-07-26 23:49:00,SystemResetWarning,0834.4,5.00,000.00,030.5,025.8,000.0,038.0,030.6,33.8,0000.0,0004.41,0011.95,0003.33
2023-07-26 23:50:00,SystemResetWarning,0834.4,5.01,000.00,030.5,026.3,000.0,038.1,030.7,33.3,0000.0,0004.43,0011.46,0003.35
2023-07-26 23:51:00,SystemResetWarning,0834.4,5.01,000.00,030.5,026.7,000.0,038.1,030.8,32.8,0000.0,0004.41,0010.64,0003.35
2023-07-26 23:52:00,SystemResetWarning,0834.3,5.00,000.00,030.6,027.0,000.0,038.2,030.9,32.0,0000.0,0004.47,0010.23,0003.38
2023-07-26 23:53:00,SystemResetWarning,0834.3,4.99,000.00,030.6,027.4,000.0,038.3,030.9,31.1,0000.0,0004.47,0010.02,0003.39
2023-07-26 23:54:00,SystemResetWarning,0834.3,4.99,000.00,030.6,027.6,000.0,038.3,031.0,32.3,0000.0,0004.49,0010.16,0003.40
2023-07-26 23:55:00,SystemResetWarning,0834.5,5.00,000.00,030.6,027.4,000.0,038.3,031.1,33.0,0000.0,0004.49,0009.61,0003.41
2023-07-26 23:56:00,SystemResetWarning,0834.2,5.01,000.00,030.6,025.8,000.0,038.2,030.8,33.4,0000.0,0004.48,0009.74,0003.42
2023-07-26 23:57:00,SystemResetWarning,0834.1,5.00,000.00,030.5,024.9,000.0,038.1,030.6,32.9,0000.0,0004.49,0010.00,0003.44
2023-07-26 23:58:00,SystemResetWarning,0834.1,5.01,000.00,030.4,024.9,000.0,038.1,030.5,32.5,0000.0,0004.53,0009.94,0003.48
2023-07-26 23:59:00,SystemResetWarning,0834.1,5.00,000.00,030.3,025.3,000.0,038.2,030.4,32.5,0000.0,0004.55,0009.86,0003.51
